Satellite-Ground Cal/Val Region Overpasses Predictions

Prediction of Satellite NPP Overpassing Cal/Val Region: PacN

Region Location: (Latitude: 15.00, Longitude: 179.40) to (Latitude: 23.50, Longitude: 200.60).

Table of predicted overpasses for the next 14.0 days since TLE Epoch: 6/11/2022
Interval Starting Time Starting Location Ending Time Ending Location
1 06/12/2022 13:36:58 ( 18.42, 179.99) 06/12/2022 13:37:40 ( 15.95, 179.41)
2 06/17/2022 01:12:58 ( 19.38, 180.00) 06/17/2022 01:13:39 ( 21.78, 179.41)
3 06/17/2022 13:41:59 ( 23.48, 179.63) 06/17/2022 13:42:14 ( 22.60, 179.41)
